Location: Ciserano
(45.5833°N, 9.6000°E)
Time: 08:59:48
(UTC+00:00)

Cosmos 2263 Rocket - Pass Details

Date: 29 November 2020
Orbit: 823 x 848 km, 71.0° (Epoch: 25 January)

Event Time Altitude Azimuth Distance (km) Brightness Sun altitude
Exits shadow 03:00:52 28° 54° (NE) 1,541 3.9 -37.6°
Drops below altitude 10° 03:03:43 10° 37° (NE) 2,479 5.0 -37.1°
Sets 03:06:16 0° 32° (NNE) 3,421 5.8 -36.6°
